Home > Weather > Bridlington > Past weeks

Flag for United Kingdom Past Weather in Bridlington, England, United Kingdom — Yesterday and Last 2 Weeks

Now
63 °F

Mild.


Feels Like: 63 °F
Forecast: 56 / 68 °F
Wind: 7 mph from Northeast

Location: Bridlington Mrsc

Current Time: Aug 25, 2016 at 12:41:23 PM

Latest Report: Aug 25, 2016 at 12:00 PM


Visibility: N/A

Pressure: 30.03 "Hg

Humidity: 93%

Dew Point: 60 °F

Location of BridlingtonLocation

Past Weather in Bridlington — Graph

°F

Bridlington Temperature Yesterday

Maximum temperature yesterday: 68 °F (at 2:00 PM)
Minimum temperature yesterday: 59 °F (at 11:00 PM)
Average temperature yesterday: 63 °F

High & Low Weather Summary for the Past Weeks

 TemperatureHumidityPressure
High73 °F (Aug 12, 4:00 PM)99% (Aug 18, 3:00 AM)30.33 "Hg (Aug 18, 3:00 AM)
Low52 °F (Aug 16, 6:00 AM)47% (Aug 12, 3:00 PM)29.44 "Hg (Aug 20, 5:00 PM)
Average62 °F82%30.03 "Hg
* Reported Aug 10 11:00 AM — Aug 25 11:00 AM, Bridlington, Weather by CustomWeather, © 2016

Note: Actual official high and low records may vary slightly from our data, if they occured in-between our weather recording intervals... More about our weather records

Advertising

Bridlington Weather History for the Previous 24 Hours

Scroll right to see more
 ConditionsComfort  
Time TempWeatherWind HumidityBarometerVisibility
11:00 AM
Thu, Aug 25
62 °FCool.10 mph94%30.04 "HgN/A
10:00 AM62 °FCool.8 mph95%30.04 "HgN/A
9:00 AM61 °FCool.9 mph98%30.04 "HgN/A
8:00 AM60 °FCool.9 mph99%30.06 "HgN/A
7:00 AM59 °FCool.8 mph99%30.06 "HgN/A
6:00 AM59 °FCool.6 mph98%30.06 "HgN/A
5:00 AM59 °FCool.2 mph97%30.09 "HgN/A
4:00 AM59 °FCool.14 mph96%30.05 "HgN/A
3:00 AM59 °FCool.13 mph96%30.06 "HgN/A
2:00 AM59 °FCool.9 mph97%30.09 "HgN/A
1:00 AM59 °FCool.10 mph96%30.11 "HgN/A
12:00 AM59 °FCool.9 mph96%30.13 "HgN/A
11:00 PM
Wed, Aug 24
59 °FCool.6 mph96%30.13 "HgN/A
10:00 PM60 °FCool.6 mph95%30.12 "HgN/A
9:00 PM60 °FCool.6 mph94%30.13 "HgN/A
8:00 PM61 °FCool.7 mph92%30.13 "HgN/A
7:00 PM61 °FCool.12 mph92%30.11 "HgN/A
6:00 PM62 °FCool.15 mph88%30.12 "HgN/A
5:00 PM64 °FMild.15 mph78%30.11 "HgN/A
4:00 PM65 °FMild.17 mph76%30.11 "HgN/A
3:00 PM67 °FMild.16 mph74%30.10 "HgN/A
2:00 PM68 °FMild.17 mph73%30.10 "HgN/A
1:00 PM68 °FMild.16 mph70%30.10 "HgN/A
12:00 PM68 °FMild.16 mph70%30.09 "HgN/A
Weather by CustomWeather, © 2016

See weather overviewHow to use our weather pages